Waarnemingen

Advertentie
Mijn weer
J6-A, Nederland (6211): temperatuur & dauwpunt: 18.02.2017 09:00:00 - 24.02.2017 09:00:00 (CET)J6-A, Nederland (6211): windsnelheid & windstoten: 18.02.2017 09:00:00 - 24.02.2017 09:00:00 (CET)J6-A, Nederland (6211): windrichting: 18.02.2017 09:00:00 - 24.02.2017 09:00:00 (CET)J6-A, Nederland (6211): luchtdruk: 18.02.2017 09:00:00 - 24.02.2017 09:00:00 (CET)J6-A, Nederland (6211): zicht: 18.02.2017 09:00:00 - 24.02.2017 09:00:00 (CET)
Datum & Tijd tt [°C] td [°C] ff [km/u] ff [kn] fx [km/u] fx [kn] dd ppp [hPa] vv [km]
24.02.2017 09:00:00 5,5 0,5 26 14 32 18 WNW 1010,3 10
24.02.2017 08:00:00 5,4 -0,4 34 18 36 19 NW 1009,1 10
24.02.2017 07:00:00 5,4 -0,4 34 18 36 19 NW 1008,0 10
24.02.2017 06:00:00 4,8 0,5 37 20 43 23 - 1006,8 10
24.02.2017 05:00:00 5,3 -0,8 44 24 50 27 NW 1005,5 10
24.02.2017 04:00:00 5,5 -1,1 52 28 65 35 NW 1004,1 10
24.02.2017 03:00:00 5,5 -0,5 57 31 58 31 NW 1002,9 10
24.02.2017 02:00:00 5,5 -1,7 63 34 68 37 NW 1001,5 10
24.02.2017 01:00:00 4,3 0,4 63 34 72 39 NW 999,9 10
24.02.2017 00:00:00 3,8 0,5 68 37 79 43 NW 998,2 3,7
23.02.2017 23:00:00 5,8 -0,7 67 36 83 45 NW 995,9 10
23.02.2017 22:00:00 4,9 1,2 72 39 76 41 NW 993,7 10
23.02.2017 21:00:00 5,1 0,3 78 42 94 51 NW 990,4 10
23.02.2017 20:00:00 5,0 2,4 74 40 83 45 N 985,3 7
23.02.2017 19:00:00 6,1 5,0 61 33 72 39 W 980,6 10
23.02.2017 18:00:00 6,9 5,0 59 32 61 33 W 979,6 10
23.02.2017 17:00:00 6,3 4,8 54 29 54 29 W 978,0 10
23.02.2017 16:00:00 5,4 4,6 50 27 72 39 WZW 976,3 7
23.02.2017 15:00:00 5,8 4,9 65 35 72 39 ZW 977,0 4,9
23.02.2017 14:00:00 7,0 4,4 63 34 76 41 ZW 978,4 7
23.02.2017 13:00:00 8,3 3,4 59 32 72 39 ZW 979,7 10
23.02.2017 12:00:00 8,1 5,9 61 33 72 39 ZZW 981,2 10
23.02.2017 11:00:00 7,2 6,9 57 31 58 31 Z 983,2 6
23.02.2017 10:00:00 7,4 7,0 48 26 54 29 Z 985,7 8
23.02.2017 09:00:00 7,2 6,9 46 25 47 25 Z 988,1 9
23.02.2017 08:00:00 5,9 5,6 42 23 50 27 ZO 989,8 10
23.02.2017 07:00:00 5,5 5,4 28 15 32 18 ZO 992,9 4,6
23.02.2017 06:00:00 5,4 5,1 16 9 18 10 ZZO 995,2 8
23.02.2017 05:00:00 5,9 5,4 13 7 18 10 ZZW 996,7 7
23.02.2017 04:00:00 6,3 4,5 21 11 32 18 ZW 998,1 10
23.02.2017 03:00:00 6,7 4,8 31 17 36 19 WZW 999,3 10
23.02.2017 02:00:00 7,0 4,5 37 20 40 21 WZW 1000,5 10
23.02.2017 01:00:00 7,1 4,5 41 22 43 23 WZW 1000,9 10
23.02.2017 00:00:00 7,2 4,4 44 24 47 25 W 1001,2 10
22.02.2017 23:00:00 7,2 4,3 46 25 47 25 W 1001,6 10
22.02.2017 22:00:00 7,6 3,9 55 30 54 29 W 1001,6 10
22.02.2017 21:00:00 7,5 4,1 50 27 54 29 W 1001,7 10
22.02.2017 20:00:00 7,4 4,1 54 29 58 31 WZW 1001,4 10
22.02.2017 19:00:00 7,8 3,7 50 27 54 29 W 1000,9 10
22.02.2017 18:00:00 7,6 4,2 52 28 54 29 WZW 1000,8 10
22.02.2017 17:00:00 7,5 4,2 52 28 50 27 WZW 1000,9 10
22.02.2017 16:00:00 7,6 3,9 55 30 54 29 WZW 1000,9 10
22.02.2017 15:00:00 7,6 4,4 57 31 58 31 WZW 1001,1 10
22.02.2017 14:00:00 7,4 4,6 55 30 58 31 WZW 1001,2 10
22.02.2017 13:00:00 7,4 4,0 59 32 58 31 WZW 1001,2 10
22.02.2017 12:00:00 7,5 4,3 59 32 58 31 WZW 1001,2 10
22.02.2017 11:00:00 7,3 4,7 46 25 50 27 W 1001,5 10
22.02.2017 10:00:00 7,7 3,1 52 28 58 31 W 1001,1 10
22.02.2017 09:00:00 8,0 4,2 52 28 58 31 W 1001,0 10
22.02.2017 08:00:00 7,7 5,5 48 26 54 29 W 1000,9 10
22.02.2017 07:00:00 8,0 6,5 59 32 79 43 WZW 1000,0 8
22.02.2017 06:00:00 8,7 7,7 74 40 79 43 WZW 999,3 10
22.02.2017 05:00:00 8,7 7,6 76 41 76 41 ZW 999,3 6
22.02.2017 04:00:00 8,5 7,2 74 40 79 43 ZW 999,4 10
22.02.2017 03:00:00 8,8 7,1 78 42 79 43 ZW 999,8 10
22.02.2017 02:00:00 8,7 6,8 80 43 79 43 ZW 1000,8 10
22.02.2017 01:00:00 8,8 6,9 70 38 76 41 ZW 1001,2 10
22.02.2017 00:00:00 8,9 7,3 63 34 65 35 ZW 1001,7 10
21.02.2017 23:00:00 8,0 7,3 61 33 65 35 ZZW 1002,4 9
21.02.2017 22:00:00 8,6 7,7 65 35 72 39 ZZW 1003,5 9
21.02.2017 21:00:00 8,0 8,0 52 28 50 27 ZZW 1004,8 8
21.02.2017 20:00:00 7,5 6,5 48 26 58 31 ZZW 1006,1 10
21.02.2017 19:00:00 7,1 5,0 37 20 40 21 Z 1007,6 10
21.02.2017 18:00:00 6,9 4,8 35 19 40 21 ZW 1008,9 10
21.02.2017 17:00:00 6,7 5,1 39 21 40 21 ZW 1010,1 10
21.02.2017 16:00:00 6,7 5,0 39 21 36 19 ZW 1011,4 10
21.02.2017 15:00:00 6,5 5,2 37 20 40 21 WZW 1012,1 10
21.02.2017 14:00:00 6,6 5,2 35 19 36 19 WZW 1012,8 10
21.02.2017 13:00:00 6,7 5,1 34 18 32 18 W 1013,4 10
21.02.2017 12:00:00 6,8 5,2 39 21 36 19 W 1013,6 10
21.02.2017 11:00:00 7,0 5,0 39 21 43 23 W 1013,4 10
21.02.2017 10:00:00 7,3 4,9 44 24 43 23 W 1012,9 10
21.02.2017 09:00:00 7,3 4,8 42 23 43 23 W 1012,7 10
21.02.2017 08:00:00 7,3 5,2 41 22 43 23 W 1012,3 10
21.02.2017 07:00:00 7,6 4,7 46 25 50 27 W 1011,6 10
21.02.2017 06:00:00 7,7 5,0 48 26 54 29 W 1011,3 10
21.02.2017 05:00:00 7,7 4,9 52 28 54 29 W 1011,0 10
21.02.2017 04:00:00 7,5 5,4 50 27 54 29 W 1011,3 10
21.02.2017 03:00:00 7,9 5,2 54 29 58 31 W 1011,3 10
21.02.2017 02:00:00 8,2 4,8 59 32 58 31 W 1011,1 10
21.02.2017 01:00:00 8,4 4,8 59 32 58 31 W 1011,4 10
21.02.2017 00:00:00 8,5 5,2 52 28 54 29 W 1011,3 10
20.02.2017 23:00:00 8,3 5,9 59 32 61 33 WNW 1011,4 10
20.02.2017 22:00:00 8,2 7,0 41 22 40 21 W 1011,4 10
20.02.2017 21:00:00 8,0 7,1 44 24 47 25 W 1011,3 10
20.02.2017 20:00:00 8,5 7,4 59 32 54 29 W 1010,7 10
20.02.2017 19:00:00 8,7 7,4 54 29 58 31 WZW 1010,4 10
20.02.2017 18:00:00 9,1 7,7 65 35 65 35 WZW 1009,7 10
20.02.2017 17:00:00 9,0 7,7 70 38 68 37 WZW 1008,8 10
20.02.2017 16:00:00 10,0 8,1 70 38 76 41 WZW 1009,2 10
20.02.2017 15:00:00 10,0 8,1 78 42 72 39 WZW 1008,9 10
20.02.2017 14:00:00 8,9 7,8 65 35 65 35 WZW 1009,7 10
20.02.2017 13:00:00 8,6 7,6 65 35 65 35 WZW 1009,9 10
20.02.2017 12:00:00 8,6 7,7 67 36 65 35 WZW 1010,9 10
20.02.2017 11:00:00 8,3 7,7 65 35 61 33 WZW 1010,8 9
20.02.2017 10:00:00 8,1 7,6 59 32 61 33 WZW 1011,0 7
20.02.2017 09:00:00 8,5 7,9 61 33 58 31 WZW 1011,6 7
20.02.2017 08:00:00 8,1 7,5 61 33 58 31 WZW 1011,6 7
20.02.2017 07:00:00 7,8 7,3 55 30 58 31 WZW 1011,7 6
20.02.2017 06:00:00 7,7 7,2 55 30 54 29 WZW 1012,2 5
20.02.2017 05:00:00 7,5 7,1 54 29 54 29 WZW 1012,7 4,8
20.02.2017 04:00:00 7,5 6,8 57 31 54 29 ZW 1013,2 7
20.02.2017 03:00:00 7,4 6,6 52 28 54 29 ZW 1014,0 9
20.02.2017 02:00:00 7,2 6,4 50 27 47 25 ZW 1014,9 10
20.02.2017 01:00:00 7,4 6,2 44 24 47 25 ZW 1015,9 10
20.02.2017 00:00:00 7,4 6,1 46 25 50 27 ZW 1016,0 10
19.02.2017 23:00:00 7,3 5,8 42 23 43 23 ZW 1016,9 10
19.02.2017 22:00:00 7,1 5,9 41 22 40 21 WZW 1017,3 10
19.02.2017 21:00:00 6,9 5,7 42 23 40 21 WZW 1017,7 10
19.02.2017 20:00:00 6,9 5,9 37 20 36 19 WZW 1018,1 10
19.02.2017 19:00:00 6,9 5,7 29 16 32 18 W 1018,2 10
19.02.2017 18:00:00 7,2 5,8 34 18 32 18 W 1017,9 10
19.02.2017 17:00:00 7,0 5,7 34 18 32 18 W 1017,9 10
19.02.2017 16:00:00 6,9 5,7 37 20 36 19 W 1017,9 10
19.02.2017 15:00:00 6,7 5,7 37 20 40 21 W 1018,1 10
19.02.2017 14:00:00 6,8 5,8 41 22 43 23 W 1017,9 10
19.02.2017 13:00:00 6,9 5,6 42 23 40 21 W 1017,9 10
19.02.2017 12:00:00 6,9 5,5 39 21 43 23 W 1018,2 10
19.02.2017 11:00:00 6,9 5,6 42 23 47 25 W 1018,1 10
19.02.2017 10:00:00 7,1 5,7 44 24 47 25 W 1017,7 8
19.02.2017 09:00:00 7,0 5,9 52 28 47 25 WZW 1017,3 5
19.02.2017 08:00:00 7,1 6,0 50 27 50 27 WZW 1016,8 4,8
19.02.2017 07:00:00 6,9 5,9 50 27 47 25 WZW 1016,6 4,7
19.02.2017 06:00:00 6,9 5,8 52 28 50 27 WZW 1016,6 4,9
19.02.2017 05:00:00 6,9 5,6 54 29 54 29 ZW 1016,8 6
19.02.2017 04:00:00 6,8 5,7 50 27 50 27 WZW 1016,9 5
19.02.2017 03:00:00 6,8 5,7 50 27 50 27 WZW 1017,6 4,4
19.02.2017 02:00:00 6,7 5,7 50 27 47 25 ZW 1018,3 4,0
19.02.2017 01:00:00 6,5 5,5 42 23 47 25 ZW 1018,3 4,0
19.02.2017 00:00:00 6,5 5,4 44 24 47 25 ZW 1019,1 4,8
18.02.2017 23:00:00 6,6 5,3 50 27 47 25 ZZW 1020,0 5
18.02.2017 22:00:00 6,5 5,4 46 25 47 25 ZZW 1020,2 4,8
18.02.2017 21:00:00 6,4 5,5 42 23 43 23 ZZW 1020,8 4,6
18.02.2017 20:00:00 6,2 5,5 39 21 36 19 ZZW 1021,1 4,3
18.02.2017 19:00:00 6,0 5,3 37 20 36 19 ZZW 1021,1 4,7
18.02.2017 18:00:00 5,8 5,0 35 19 36 19 ZZW 1021,6 6
18.02.2017 17:00:00 5,3 4,4 34 18 32 18 ZZW 1022,0 5
18.02.2017 16:00:00 4,5 3,7 29 16 43 23 ZZW 1022,5 6
18.02.2017 15:00:00 4,6 4,0 34 18 36 19 ZZW 1022,8 4,3
18.02.2017 14:00:00 4,6 4,3 37 20 36 19 ZZW 1023,5 5
18.02.2017 13:00:00 4,4 4,4 39 21 40 21 ZW 1024,2 0,2
18.02.2017 12:00:00 5,9 5,0 34 18 32 18 Z 1024,6 10
18.02.2017 11:00:00 5,7 5,7 34 18 32 18 Z 1024,5 0,3
18.02.2017 10:00:00 5,0 5,0 28 15 29 16 Z 1025,0 0,2
18.02.2017 09:00:00 4,7 4,7 28 15 29 16 Z 1024,8 0,2

tt = temperatuur
td = dauwpunt
ff = windsnelheid
fx = windstoten
dd = windrichting
ppp = luchtdruk
vv = zicht

Weerstations in de omgeving